VLG8NW LEST-EGLL

Flight info

Callsign VLG8NW
Flight time N/A
Altitude 38000
Route KORAV N728 KORUL DCT EBOMO DCT RUSIB DCT NOZHU DCT OTMET
Aircraft A20N/M-SDE2E3FGHIRWXY/LB1

Departure

Time 2026-04-27 16:16
Airport Santiago-Rosalía de Castro Airport (LEST)

Arrival

Time N/A
Airport London Heathrow Airport (EGLL)
Time Latitude Longitude Altitude Speed Heading
2026-04-27 16:01 42.89788 -8.41934 1192 ft 0 kts 252°
2026-04-27 16:09 42.89794 -8.41905 1193 ft 2 kts 252°
2026-04-27 16:09 42.89799 -8.41886 1193 ft 2 kts 252°
2026-04-27 16:10 42.89809 -8.41843 1192 ft 2 kts 251°
2026-04-27 16:10 42.89828 -8.41811 1192 ft 1 kts 178°
2026-04-27 16:11 42.89831 -8.41811 1192 ft 0 kts 172°
2026-04-27 16:12 42.89792 -8.41799 1192 ft 12 kts 165°
2026-04-27 16:12 42.89572 -8.41725 1195 ft 19 kts 166°
2026-04-27 16:13 42.89437 -8.41680 1197 ft 21 kts 166°
2026-04-27 16:13 42.89129 -8.41576 1201 ft 24 kts 166°
2026-04-27 16:13 42.88959 -8.41518 1203 ft 26 kts 167°
2026-04-27 16:14 42.88591 -8.41394 1207 ft 29 kts 165°
2026-04-27 16:14 42.88370 -8.41247 1210 ft 8 kts 81°
2026-04-27 16:15 42.88569 -8.41160 1209 ft 52 kts 347°
2026-04-27 16:15 42.90045 -8.41653 1240 ft 152 kts 347°
2026-04-27 16:16 42.92182 -8.42420 2427 ft 160 kts 347°
2026-04-27 16:16 42.94467 -8.43174 3358 ft 191 kts 350°
2026-04-27 16:17 42.97393 -8.44127 4210 ft 240 kts 349°
2026-04-27 16:17 43.00144 -8.42822 6096 ft 244 kts 49°
2026-04-27 16:18 43.02108 -8.38906 7871 ft 256 kts 59°
2026-04-27 16:18 43.04152 -8.34714 9439 ft 282 kts 47°
2026-04-27 16:19 43.05663 -8.32860 9995 ft 301 kts 36°
2026-04-27 16:19 43.07448 -8.31229 10568 ft 319 kts 30°
2026-04-27 16:20 43.13743 -8.26417 12472 ft 357 kts 27°
2026-04-27 16:20 43.15933 -8.24763 13338 ft 362 kts 27°
2026-04-27 16:20 43.20383 -8.21366 14921 ft 371 kts 27°
2026-04-27 16:21 43.22646 -8.19628 15671 ft 375 kts 27°
2026-04-27 16:21 43.29596 -8.14279 17879 ft 389 kts 27°
2026-04-27 16:22 43.31965 -8.12452 18564 ft 393 kts 27°
2026-04-27 16:22 43.36797 -8.08721 19805 ft 402 kts 27°
2026-04-27 16:22 43.39247 -8.06827 20432 ft 407 kts 27°
2026-04-27 16:23 43.41700 -8.04931 21025 ft 412 kts 27°
2026-04-27 16:23 43.46744 -8.01023 22244 ft 420 kts 27°
2026-04-27 16:23 43.49307 -7.99033 22823 ft 425 kts 27°
2026-04-27 16:24 43.51897 -7.97021 23404 ft 429 kts 27°
2026-04-27 16:24 43.57141 -7.92939 24417 ft 438 kts 27°
2026-04-27 16:25 43.62491 -7.88767 25321 ft 446 kts 27°
2026-04-27 16:25 43.67945 -7.84505 26237 ft 454 kts 27°
2026-04-27 16:26 43.73480 -7.80168 27092 ft 461 kts 27°
2026-04-27 16:26 43.79107 -7.75752 27936 ft 468 kts 27°
2026-04-27 16:27 43.84822 -7.71256 28690 ft 476 kts 27°
2026-04-27 16:27 43.93536 -7.64381 29781 ft 485 kts 27°
2026-04-27 16:28 43.99435 -7.59713 30476 ft 490 kts 27°
2026-04-27 16:28 44.05383 -7.54996 31211 ft 493 kts 27°
2026-04-27 16:29 44.13240 -7.48746 32380 ft 491 kts 27°
2026-04-27 16:30 44.19145 -7.44037 33265 ft 488 kts 28°
2026-04-27 16:30 44.25024 -7.39338 34092 ft 486 kts 28°
2026-04-27 16:31 44.33787 -7.32315 35123 ft 483 kts 27°
2026-04-27 16:31 44.39598 -7.27644 35752 ft 481 kts 27°
2026-04-27 16:32 44.45388 -7.22978 36349 ft 479 kts 27°
2026-04-27 16:32 44.48273 -7.20650 36636 ft 478 kts 27°
2026-04-27 16:33 44.54028 -7.15996 37182 ft 477 kts 27°
2026-04-27 16:33 44.56903 -7.13668 37458 ft 476 kts 27°
2026-04-27 16:33 44.59765 -7.11347 37718 ft 475 kts 27°
2026-04-27 16:33 44.62631 -7.09021 37983 ft 474 kts 27°
2026-04-27 16:34 44.65486 -7.06701 38143 ft 474 kts 27°
2026-04-27 16:34 44.68338 -7.04380 38146 ft 473 kts 27°
2026-04-27 16:34 44.73988 -6.99776 38130 ft 472 kts 27°
2026-04-27 16:35 44.79673 -6.95133 38151 ft 472 kts 27°
2026-04-27 16:36 44.88197 -6.88145 38151 ft 472 kts 28°
2026-04-27 16:36 44.93873 -6.83476 38134 ft 472 kts 28°
2026-04-27 16:37 44.99550 -6.78805 38142 ft 472 kts 28°
2026-04-27 16:37 45.05212 -6.74137 38141 ft 472 kts 28°
2026-04-27 16:38 45.10841 -6.69481 38143 ft 472 kts 28°
2026-04-27 16:38 45.16502 -6.64787 38147 ft 471 kts 28°
2026-04-27 16:39 45.22157 -6.60086 38147 ft 471 kts 28°
2026-04-27 16:39 45.27821 -6.55368 38147 ft 472 kts 28°
2026-04-27 16:40 45.33370 -6.50733 38148 ft 472 kts 28°
2026-04-27 16:40 45.39025 -6.46000 38150 ft 472 kts 28°
2026-04-27 16:41 45.44675 -6.41260 38153 ft 472 kts 28°
2026-04-27 16:41 45.49342 -6.37336 38154 ft 472 kts 28°
2026-04-27 16:42 45.54993 -6.32574 38158 ft 472 kts 28°
2026-04-27 16:42 45.60644 -6.27801 38159 ft 472 kts 28°
2026-04-27 16:43 45.66289 -6.23022 38161 ft 472 kts 28°
2026-04-27 16:43 45.71935 -6.18231 38159 ft 472 kts 28°
2026-04-27 16:44 45.77579 -6.13430 38161 ft 472 kts 28°
2026-04-27 16:44 45.83223 -6.08618 38164 ft 472 kts 28°
2026-04-27 16:45 45.88864 -6.03797 38163 ft 472 kts 28°
2026-04-27 16:45 45.94489 -5.98978 38163 ft 472 kts 28°
2026-04-27 16:46 46.00091 -5.94167 38164 ft 472 kts 28°
2026-04-27 16:46 46.05725 -5.89317 38168 ft 472 kts 28°
2026-04-27 16:47 46.11358 -5.84456 38168 ft 472 kts 28°
2026-04-27 16:47 46.16987 -5.79587 38162 ft 472 kts 29°
2026-04-27 16:48 46.22618 -5.74705 38164 ft 472 kts 29°
2026-04-27 16:48 46.28170 -5.69878 38165 ft 472 kts 29°
2026-04-27 16:49 46.36105 -5.62961 38167 ft 472 kts 29°
2026-04-27 16:49 46.41724 -5.58049 38169 ft 472 kts 29°
2026-04-27 16:50 46.47263 -5.53195 38164 ft 472 kts 29°
2026-04-27 16:50 46.52798 -5.48333 38174 ft 472 kts 29°
2026-04-27 16:51 46.58421 -5.43381 38173 ft 472 kts 29°
2026-04-27 16:51 46.64035 -5.38425 38172 ft 472 kts 29°
2026-04-27 16:52 46.69651 -5.33455 38170 ft 472 kts 29°
2026-04-27 16:52 46.75226 -5.28510 38173 ft 472 kts 29°
2026-04-27 16:53 46.80835 -5.23521 38170 ft 472 kts 29°
2026-04-27 16:53 46.86448 -5.18517 38173 ft 472 kts 29°
2026-04-27 16:54 46.92051 -5.13509 38173 ft 472 kts 30°
2026-04-27 16:54 46.97647 -5.08495 38176 ft 472 kts 30°
2026-04-27 16:55 47.03249 -5.03465 38170 ft 472 kts 30°
2026-04-27 16:55 47.08843 -4.98428 38173 ft 472 kts 30°
2026-04-27 16:56 47.14344 -4.93462 38175 ft 472 kts 30°
2026-04-27 16:56 47.19930 -4.88407 38175 ft 472 kts 30°
2026-04-27 16:57 47.25512 -4.83343 38175 ft 471 kts 30°
2026-04-27 16:57 47.31016 -4.78337 38176 ft 471 kts 30°
2026-04-27 16:58 47.34725 -4.74958 38169 ft 471 kts 30°
2026-04-27 16:58 47.40420 -4.69757 38181 ft 471 kts 30°
2026-04-27 16:59 47.41892 -4.68410 38178 ft 471 kts 30°
2026-04-27 17:00 47.42517 -4.67838 38174 ft 471 kts 30°
2026-04-27 17:01 47.48094 -4.62727 38177 ft 471 kts 30°
2026-04-27 17:01 47.53664 -4.57609 38174 ft 471 kts 30°
2026-04-27 17:02 47.59012 -4.52683 38176 ft 471 kts 30°
2026-04-27 17:02 47.64467 -4.47647 38178 ft 471 kts 30°
2026-04-27 17:03 47.68185 -4.44206 38180 ft 471 kts 30°
2026-04-27 17:04 47.68366 -4.44039 38179 ft 471 kts 30°
2026-04-27 17:04 47.68647 -4.43778 38168 ft 471 kts 30°
2026-04-27 17:05 47.70652 -4.41920 38177 ft 471 kts 30°
2026-04-27 17:05 47.75355 -4.37560 38319 ft 471 kts 30°
2026-04-27 17:05 47.78021 -4.35088 38024 ft 465 kts 30°
2026-04-27 17:06 47.80710 -4.32772 38173 ft 465 kts 24°
2026-04-27 17:06 47.86503 -4.29411 38158 ft 465 kts 13°
2026-04-27 17:07 47.92710 -4.26770 38157 ft 464 kts 13°
2026-04-27 17:07 47.98908 -4.24094 38154 ft 464 kts 13°
2026-04-27 17:08 48.04926 -4.21504 38158 ft 463 kts 13°
2026-04-27 17:08 48.11144 -4.18828 38168 ft 463 kts 13°
2026-04-27 17:09 48.17329 -4.16161 38170 ft 463 kts 13°
2026-04-27 17:09 48.21309 -4.14440 38173 ft 463 kts 14°
2026-04-27 17:10 48.26383 -4.12243 38196 ft 462 kts 14°
2026-04-27 17:10 48.31695 -4.09937 38202 ft 462 kts 14°
2026-04-27 17:11 48.37479 -4.07422 38203 ft 462 kts 14°
2026-04-27 17:11 48.46733 -4.03384 38211 ft 461 kts 14°
2026-04-27 17:12 48.55836 -3.99397 38208 ft 460 kts 14°
2026-04-27 17:13 48.61984 -3.96695 38208 ft 460 kts 14°
2026-04-27 17:13 48.68092 -3.94006 38209 ft 459 kts 14°
2026-04-27 17:14 48.73996 -3.91399 38209 ft 459 kts 14°
2026-04-27 17:14 48.80108 -3.88693 38213 ft 459 kts 14°
2026-04-27 17:15 48.86012 -3.86073 38217 ft 458 kts 14°
2026-04-27 17:15 48.92122 -3.83355 38232 ft 458 kts 14°
2026-04-27 17:16 48.98230 -3.81161 38230 ft 455 kts
2026-04-27 17:16 49.04531 -3.80503 38233 ft 453 kts 360°
2026-04-27 17:17 49.10652 -3.80105 38238 ft 453 kts
2026-04-27 17:17 49.16957 -3.79699 38237 ft 453 kts
2026-04-27 17:18 49.26310 -3.79124 38241 ft 453 kts
2026-04-27 17:18 49.32616 -3.78739 38247 ft 454 kts
2026-04-27 17:19 49.38544 -3.78375 38250 ft 454 kts
2026-04-27 17:19 49.44791 -3.77991 38248 ft 454 kts
2026-04-27 17:20 49.51073 -3.77603 38259 ft 453 kts
2026-04-27 17:20 49.53398 -3.77460 38254 ft 453 kts
2026-04-27 17:21 49.54499 -3.77392 38253 ft 453 kts
2026-04-27 17:21 49.57942 -3.77180 38252 ft 453 kts
2026-04-27 17:22 49.64241 -3.76737 38254 ft 454 kts
2026-04-27 17:22 49.68712 -3.75201 38256 ft 456 kts 18°
2026-04-27 17:23 49.72243 -3.72660 38255 ft 458 kts 30°
2026-04-27 17:23 49.73932 -3.70931 38242 ft 458 kts 36°
2026-04-27 17:23 49.79333 -3.64267 38247 ft 458 kts 37°
2026-04-27 17:24 49.84319 -3.58108 38245 ft 458 kts 37°
2026-04-27 17:24 49.88963 -3.52341 38245 ft 458 kts 37°
2026-04-27 17:25 49.90475 -3.50457 38242 ft 458 kts 37°
2026-04-27 17:25 49.92757 -3.47612 38260 ft 458 kts 38°
2026-04-27 17:26 49.97594 -3.41569 38258 ft 458 kts 38°
2026-04-27 17:26 50.02306 -3.35667 38256 ft 457 kts 38°
2026-04-27 17:27 50.07337 -3.29347 38261 ft 457 kts 37°
2026-04-27 17:27 50.12201 -3.23221 38248 ft 457 kts 37°
2026-04-27 17:28 50.16932 -3.17248 38251 ft 456 kts 37°
2026-04-27 17:29 50.22201 -3.10576 38251 ft 456 kts 37°
2026-04-27 17:29 50.26858 -3.04664 38246 ft 455 kts 37°
2026-04-27 17:30 50.31059 -2.99316 38192 ft 454 kts 37°
2026-04-27 17:30 50.34175 -2.95341 37641 ft 453 kts 37°
2026-04-27 17:30 50.35762 -2.93314 37173 ft 454 kts 37°
2026-04-27 17:31 50.37533 -2.91050 36568 ft 456 kts 37°
2026-04-27 17:31 50.39914 -2.88002 35735 ft 459 kts 37°
2026-04-27 17:31 50.42402 -2.84814 34875 ft 462 kts 37°
2026-04-27 17:31 50.44287 -2.82395 34197 ft 461 kts 37°
2026-04-27 17:32 50.46699 -2.79293 33030 ft 459 kts 37°
2026-04-27 17:32 50.51225 -2.73460 31248 ft 451 kts 37°
2026-04-27 17:32 50.52643 -2.71629 30967 ft 446 kts 37°
2026-04-27 17:33 50.54997 -2.68588 30312 ft 443 kts 36°
2026-04-27 17:33 50.57317 -2.65591 29711 ft 437 kts 36°
2026-04-27 17:33 50.59605 -2.62628 29130 ft 431 kts 36°
2026-04-27 17:33 50.61905 -2.59648 28562 ft 425 kts 36°
2026-04-27 17:34 50.64058 -2.56777 28020 ft 422 kts 41°
2026-04-27 17:34 50.65905 -2.53209 27463 ft 422 kts 55°
2026-04-27 17:34 50.67164 -2.49034 26959 ft 422 kts 69°
2026-04-27 17:34 50.67756 -2.44470 26753 ft 439 kts 83°
2026-04-27 17:35 50.67720 -2.39583 26464 ft 446 kts 91°
2026-04-27 17:35 50.67518 -2.34734 26162 ft 442 kts 92°
2026-04-27 17:35 50.67334 -2.30619 25900 ft 438 kts 92°
2026-04-27 17:35 50.67121 -2.25877 25608 ft 437 kts 92°
2026-04-27 17:36 50.67063 -2.24579 25529 ft 437 kts 92°
2026-04-27 17:36 50.66852 -2.19841 25232 ft 436 kts 92°
2026-04-27 17:36 50.66642 -2.15087 24937 ft 434 kts 92°
2026-04-27 17:37 50.66503 -2.11970 24745 ft 433 kts 92°
2026-04-27 17:37 50.66429 -2.10293 24641 ft 432 kts 92°
2026-04-27 17:37 50.66208 -2.05361 24344 ft 431 kts 92°
2026-04-27 17:37 50.66092 -2.00664 24046 ft 427 kts 86°
2026-04-27 17:38 50.66158 -1.95984 23744 ft 426 kts 86°
2026-04-27 17:38 50.66220 -1.91384 23460 ft 424 kts 86°
2026-04-27 17:38 50.66275 -1.87034 23174 ft 423 kts 87°
2026-04-27 17:38 50.66330 -1.82479 22895 ft 421 kts 87°
2026-04-27 17:39 50.66382 -1.77873 22612 ft 420 kts 87°
2026-04-27 17:39 50.66431 -1.73277 22313 ft 418 kts 87°
2026-04-27 17:39 50.66478 -1.68706 22028 ft 417 kts 87°
2026-04-27 17:39 50.66524 -1.64143 21742 ft 415 kts 87°
2026-04-27 17:40 50.66574 -1.59759 21467 ft 414 kts 85°
2026-04-27 17:40 50.66950 -1.55283 21187 ft 410 kts 75°
2026-04-27 17:40 50.67738 -1.51237 20734 ft 409 kts 65°
2026-04-27 17:40 50.68829 -1.47614 20325 ft 402 kts 60°
2026-04-27 17:41 50.70067 -1.43683 19878 ft 399 kts 61°